Location: Guferjoch
(46.7462°N, 8.4506°E)
Time: 13:09:49
(UTC+00:00)

ADEOS II - Pass Details

Date: 14 July 2020
Orbit: 799 x 801 km, 98.5° (Epoch: 06 August)

Event Time Altitude Azimuth Distance (km) Brightness Sun altitude
Rises 02:57:12 0° 5° (N) 3,322 6.1 -7.5°
Reaches altitude 10° 02:59:46 10° 356° (N) 2,387 5.1 -7.2°
Maximum altitude 03:04:18 30° 296° (WNW) 1,398 3.2 -6.6°
Drops below altitude 10° 03:08:49 10° 237° (WSW) 2,372 3.9 -6.0°
Enters shadow 03:09:33 - 233° (SW) 2,625 4.1 -5.9°
